sat.trackr.live / text

‹ back to catalog

SCS-01 G

NORAD 63988 · 2025-100G

PAYLOAD ACTIVE UNKNOWN

§ Identity

Operator
Country
PRC
Launch date
2025-05-14
Launch site
JSC
Launch vehicle
Mass (kg)
RCS (m²)

External: N2YO · Heavens-Above · Gunter

§ Orbital elements

Epoch: 2026-05-25T04:18:21.639168Z

Period
94.34 min
Inclination
97.3701°
Eccentricity
0.0013443
Mean motion
15.26420628 rev/d
Perigee alt
477.3 km
Apogee alt
495.8 km
Semi-major
6,864.7 km
B*
1.6858e-4
RAAN
220.4852°
Arg perigee
33.9181°
Mean anomaly
326.2915°
Rev number
5,725

§ Raw data

SCS-01 G1 63988U 25100G   26145.17941712  .00004327  00000+0  16858-3 0  99982 63988  97.3701 220.4852 0013443  33.9181 326.2915 15.26420628 57259

JSON: /api/v1/satellites/63988 · /tle

For live sub-satellite position, see the globe view (requires WebGL).

§ Visibility from observer

Set your observer location to see the next 7 days of passes ≥ 10°. The values pass through the URL so the page stays shareable.

No JS? Fill the form by hand. The geolocation button needs JavaScript.